{"data":{"norad_id":67828,"intl_designator":"2026-033H","name":"STARLINK-36670","alt_names":[],"object_type":"PAYLOAD","status":"ACTIVE","operator":null,"country":"US","launch_date":"2026-02-16","launch_site_code":"AFETR","launch_vehicle":null,"mission":null,"orbit_class":"UNKNOWN","rcs_meters":null,"size_class":null,"mass_kg":null,"dimensions":null,"purposes":["comms"],"wikipedia_slug":null,"has_3d_model":false,"image_url":null,"decayed_at":null,"tle_current":{"epoch":"2026-09-19T23:20:48.524640Z","epoch_age_seconds":111960,"freshness":"FRESH","line1":"1 67828U 26033H   26262.97278385  .00030472  00000+0  11103-2 0  9995","line2":"2 67828  43.0013 250.1507 0001345 287.4516  72.6188 15.27639068 34387","mean_motion":15.27639068,"eccentricity":0.0001345,"inclination_deg":43.0013,"raan_deg":250.1507,"arg_perigee_deg":287.4516,"mean_anomaly_deg":72.6188,"bstar":0.0011103,"rev_number":3438,"period_min":94.263103776553,"perigee_km":481.94942515562,"apogee_km":483.79503663873,"semimajor_km":6861.0092308972,"source":"CELESTRAK","updated_at":"2026-09-20T09:00:43.668353Z"}}}